Погода в Аристове

Россия / Рязанская область     54°08′42″N   40°12′52″E
темп.,
°C
ветер,
м/с
пор.,
м/с
влажн.,
%
обл.,
%
осадки,
мм/ч
давл.,
гПа
погр.,
м
23 октября, сб
сб2300:00+8зюз612706 0.0 1006511
03:00+7юз6137268 0.0 1007445
06:00+6юз6146652 0.0 1007582
09:00+7юз612655 0.0 1008715
12:00+10зюз8124996 0.0 10081375
15:00+10зюз7125049 0.0 10081638
18:00+8зюз6106396 0.0 10101114
21:00+6юз510715 0.0 1010303
24 октября, вс
вс2400:00+5зюз512825 0.0 1011477
03:00+3зюз511827 0.0 1012470
06:00+4зюз51076100 0.0 1012608
09:00+5зюз61175100 0.0 1012670
12:00+5з7108178 0.1 1013853
15:00+5зсз7971100 0.3 10141061
18:00+2зсз61090100 0.1 1015749
21:00+2сз6119388 0.3 1017821
25 октября, пн
пн2500:00+1ссз7128389 0.1 1019944
03:000ссз71172100 0.1 10211120
06:00−1ссз7127630 0.0 1024830
09:000ссз612745 0.0 1026709
12:00+3с67515 0.0 1028986
15:00+4ссз56455 0.0 10281087
18:00+1сз3360100 0.0 103048
21:000з33655 0.0 103035
26 октября, вт
вт2600:00−1юз367110 0.0 1030119
03:00−1юз4107434 0.0 1030209
06:00−1юз5127457 0.0 1028274
09:00+1юз6136427 0.0 1028397
12:00+6зюз71147100 0.0 1027608
15:00+6зюз71346100 0.0 1025672
18:00+4юз6145545 0.0 1025424
21:00+3юз6145972 0.0 1024417
27 октября, ср
ср2700:00+2юз6136299 0.0 1024379
03:00+2юз6146498 0.0 1023364
06:00+1юз61367100 0.0 1022338
09:00+3юз61459100 0.0 1021450
12:00+6юз71449100 0.0 1019652
15:00+7юз71351100 0.0 1018741
18:00+6юз71358100 0.0 1017629
21:00+4зюз61364100 0.0 1017536